Time,TemperatureF,DewpointF,PressureIn,WindDirection,WindDirectionDegrees,WindSpeedMPH,WindSpeedGustMPH,Humidity,HourlyPrecipIn,Conditions,Clouds,dailyrainin,SoftwareType,DateUTC
2013-08-27 00:01:00,69.1,68.5,29.93,SW,216,2.0,4.0,98,0.04,,,0.19,meteohub,2013-08-27 04:01:00,
2013-08-27 00:02:00,69.1,68.7,29.93,SW,226,2.0,5.0,99,0.04,,,0.19,meteohub,2013-08-27 04:02:00,
2013-08-27 00:07:00,69.3,68.9,29.92,SW,222,3.0,6.0,99,0.08,,,0.01,meteohub,2013-08-27 04:07:00,
2013-08-27 00:12:00,69.3,68.9,29.92,SW,214,0.0,6.0,99,0.09,,,0.04,meteohub,2013-08-27 04:12:00,
2013-08-27 00:17:00,69.3,68.9,29.92,SW,224,0.0,6.0,99,0.12,,,0.07,meteohub,2013-08-27 04:17:00,
2013-08-27 00:22:00,69.3,68.9,29.92,WSW,240,0.0,6.0,99,0.12,,,0.09,meteohub,2013-08-27 04:22:00,
2013-08-27 00:27:00,69.3,68.9,29.92,SW,222,1.0,3.0,99,0.16,,,0.11,meteohub,2013-08-27 04:27:00,
2013-08-27 00:32:00,69.3,68.9,29.92,SW,222,0.0,3.0,99,0.18,,,0.13,meteohub,2013-08-27 04:32:00,
2013-08-27 00:37:00,69.3,68.9,29.92,SW,227,0.0,3.0,99,0.19,,,0.14,meteohub,2013-08-27 04:37:00,
2013-08-27 00:42:00,69.3,68.9,29.91,SSW,204,2.0,3.0,99,0.20,,,0.16,meteohub,2013-08-27 04:42:00,
2013-08-27 00:47:00,69.3,68.9,29.91,SSW,210,3.0,3.0,99,0.22,,,0.18,meteohub,2013-08-27 04:47:00,
2013-08-27 00:52:00,69.3,68.9,29.91,SW,214,5.0,5.0,99,0.22,,,0.19,meteohub,2013-08-27 04:52:00,
2013-08-27 00:57:00,69.1,68.7,29.91,SW,219,5.0,5.0,99,0.24,,,0.22,meteohub,2013-08-27 04:57:00,
2013-08-27 01:02:00,69.1,68.7,29.90,SW,219,4.0,6.0,99,0.23,,,0.23,meteohub,2013-08-27 05:02:00,
2013-08-27 01:07:00,69.3,68.9,29.90,SSW,205,4.0,6.0,99,0.20,,,0.23,meteohub,2013-08-27 05:07:00,
2013-08-27 01:12:00,69.3,68.9,29.90,SSW,210,4.0,6.0,99,0.18,,,0.23,meteohub,2013-08-27 05:12:00,
2013-08-27 01:17:00,69.3,68.9,29.90,SW,229,6.0,6.0,99,0.16,,,0.24,meteohub,2013-08-27 05:17:00,
2013-08-27 01:22:00,69.3,68.9,29.90,SW,226,7.0,8.0,99,0.14,,,0.24,meteohub,2013-08-27 05:22:00,
2013-08-27 01:27:00,69.3,68.9,29.89,SW,219,7.0,8.0,99,0.12,,,0.24,meteohub,2013-08-27 05:27:00,
2013-08-27 01:32:00,69.3,68.9,29.90,SW,221,5.0,9.0,99,0.11,,,0.24,meteohub,2013-08-27 05:32:00,
2013-08-27 01:37:00,69.3,68.9,29.89,SW,229,4.0,9.0,99,0.09,,,0.24,meteohub,2013-08-27 05:37:00,
2013-08-27 01:42:00,69.1,68.7,29.89,SSW,201,4.0,9.0,99,0.07,,,0.24,meteohub,2013-08-27 05:42:00,
2013-08-27 01:47:00,69.1,68.7,29.89,SW,214,8.0,9.0,99,0.05,,,0.24,meteohub,2013-08-27 05:47:00,
2013-08-27 01:52:00,69.1,68.7,29.89,SW,214,4.0,8.0,99,0.03,,,0.24,meteohub,2013-08-27 05:52:00,
2013-08-27 01:57:00,69.1,68.7,29.89,SW,219,3.0,8.0,99,0.02,,,0.24,meteohub,2013-08-27 05:57:00,
2013-08-27 02:02:00,69.1,68.7,29.89,SSW,210,4.0,8.0,99,0.01,,,0.24,meteohub,2013-08-27 06:02:00,
2013-08-27 02:07:00,69.1,68.7,29.88,SSW,207,4.0,7.0,99,0.01,,,0.24,meteohub,2013-08-27 06:07:00,
2013-08-27 02:12:00,69.1,69.1,29.88,SW,217,3.0,6.0,100,0.00,,,0.24,meteohub,2013-08-27 06:12:00,
2013-08-27 02:17:00,69.1,68.7,29.88,SW,217,3.0,6.0,99,0.00,,,0.24,meteohub,2013-08-27 06:17:00,
2013-08-27 02:22:00,69.1,69.1,29.88,SSW,211,3.0,5.0,100,0.00,,,0.24,meteohub,2013-08-27 06:22:00,
2013-08-27 02:27:00,69.1,69.1,29.88,South,169,3.0,5.0,100,0.00,,,0.24,meteohub,2013-08-27 06:27:00,
2013-08-27 02:32:00,69.1,69.1,29.88,SSW,205,4.0,6.0,100,0.00,,,0.24,meteohub,2013-08-27 06:32:00,
2013-08-27 02:37:00,69.1,69.1,29.88,SW,235,0.0,6.0,100,0.00,,,0.24,meteohub,2013-08-27 06:37:00,
2013-08-27 02:42:00,69.1,69.1,29.87,SW,229,3.0,6.0,100,0.00,,,0.24,meteohub,2013-08-27 06:42:00,
2013-08-27 02:47:00,69.1,69.1,29.87,SSW,212,0.0,5.0,100,0.00,,,0.24,meteohub,2013-08-27 06:47:00,
2013-08-27 02:52:00,69.3,69.3,29.87,WSW,238,2.0,4.0,100,0.00,,,0.24,meteohub,2013-08-27 06:52:00,
2013-08-27 02:57:00,69.3,69.3,29.87,SSW,210,4.0,6.0,100,0.00,,,0.24,meteohub,2013-08-27 06:57:00,
2013-08-27 03:02:00,69.3,69.3,29.87,SW,235,3.0,6.0,100,0.00,,,0.24,meteohub,2013-08-27 07:02:00,
2013-08-27 03:07:00,69.3,69.3,29.87,SW,232,4.0,6.0,100,0.01,,,0.25,meteohub,2013-08-27 07:07:00,
2013-08-27 03:12:00,69.4,69.4,29.87,SW,229,2.0,6.0,100,0.01,,,0.25,meteohub,2013-08-27 07:12:00,
2013-08-27 03:17:00,69.3,69.3,29.86,SW,222,2.0,5.0,100,0.02,,,0.26,meteohub,2013-08-27 07:17:00,
2013-08-27 03:22:00,69.3,69.3,29.86,SSW,204,1.0,6.0,100,0.03,,,0.27,meteohub,2013-08-27 07:22:00,
2013-08-27 03:28:00,69.3,69.3,29.86,SW,225,2.0,6.0,100,0.04,,,0.28,meteohub,2013-08-27 07:28:00,
2013-08-27 03:33:00,69.3,69.3,29.86,SW,218,0.0,6.0,100,0.05,,,0.29,meteohub,2013-08-27 07:33:00,
2013-08-27 03:38:00,69.3,69.3,29.86,SSW,210,1.0,4.0,100,0.05,,,0.29,meteohub,2013-08-27 07:38:00,
2013-08-27 03:43:00,69.3,69.3,29.86,South,190,0.0,4.0,100,0.06,,,0.30,meteohub,2013-08-27 07:43:00,
2013-08-27 03:48:00,69.3,69.3,29.86,SW,215,3.0,4.0,100,0.07,,,0.31,meteohub,2013-08-27 07:48:00,
2013-08-27 03:53:00,69.1,69.1,29.86,SSW,200,3.0,4.0,100,0.09,,,0.33,meteohub,2013-08-27 07:53:00,
2013-08-27 03:58:00,69.1,69.1,29.86,SSW,198,2.0,4.0,100,0.10,,,0.34,meteohub,2013-08-27 07:58:00,
2013-08-27 04:03:00,69.1,69.1,29.85,South,181,2.0,4.0,100,0.11,,,0.35,meteohub,2013-08-27 08:03:00,
2013-08-27 04:08:00,68.9,68.9,29.85,South,184,2.0,4.0,100,0.11,,,0.36,meteohub,2013-08-27 08:08:00,
2013-08-27 04:13:00,68.7,68.7,29.85,SSW,198,4.0,4.0,100,0.12,,,0.37,meteohub,2013-08-27 08:13:00,
2013-08-27 04:18:00,68.7,68.7,29.85,SSW,193,2.0,5.0,100,0.12,,,0.38,meteohub,2013-08-27 08:18:00,
2013-08-27 04:23:00,68.7,68.7,29.85,SSW,200,5.0,5.0,100,0.12,,,0.39,meteohub,2013-08-27 08:23:00,
2013-08-27 04:28:00,68.7,68.7,29.85,SSW,210,4.0,5.0,100,0.14,,,0.42,meteohub,2013-08-27 08:28:00,
2013-08-27 04:33:00,68.5,68.5,29.85,South,180,1.0,5.0,100,0.16,,,0.45,meteohub,2013-08-27 08:33:00,
2013-08-27 04:38:00,68.7,68.7,29.85,ESE,108,0.0,5.0,100,0.26,,,0.56,meteohub,2013-08-27 08:38:00,
2013-08-27 04:43:00,68.7,68.7,29.85,NNE,29,0.0,5.0,100,0.35,,,0.65,meteohub,2013-08-27 08:43:00,
2013-08-27 04:48:00,68.7,68.7,29.85,SSE,155,0.0,2.0,100,0.38,,,0.70,meteohub,2013-08-27 08:48:00,
2013-08-27 04:53:00,68.7,68.7,29.85,SE,141,0.0,2.0,100,0.44,,,0.76,meteohub,2013-08-27 08:53:00,
2013-08-27 04:58:00,68.5,68.5,29.84,South,174,5.0,5.0,100,0.44,,,0.76,meteohub,2013-08-27 08:58:00,
2013-08-27 05:03:00,68.5,68.5,29.84,ESE,104,3.0,3.0,100,0.44,,,0.79,meteohub,2013-08-27 09:03:00,
2013-08-27 05:08:00,68.5,68.5,29.84,South,171,5.0,6.0,100,0.44,,,0.79,meteohub,2013-08-27 09:08:00,
2013-08-27 05:13:00,68.5,68.5,29.84,South,178,2.0,6.0,100,0.43,,,0.81,meteohub,2013-08-27 09:13:00,
2013-08-27 05:18:00,68.5,68.5,29.84,SSE,150,3.0,6.0,100,0.43,,,0.81,meteohub,2013-08-27 09:18:00,
2013-08-27 05:23:00,68.4,68.4,29.84,SSE,152,5.0,6.0,100,0.42,,,0.81,meteohub,2013-08-27 09:23:00,
2013-08-27 05:28:00,68.4,68.4,29.84,South,179,3.0,5.0,100,0.42,,,0.81,meteohub,2013-08-27 09:28:00,
2013-08-27 05:33:00,68.4,68.4,29.84,South,186,4.0,5.0,100,0.29,,,0.82,meteohub,2013-08-27 09:33:00,
2013-08-27 05:38:00,68.4,68.4,29.84,SSE,148,5.0,6.0,100,0.29,,,0.82,meteohub,2013-08-27 09:38:00,
2013-08-27 05:43:00,68.2,68.2,29.84,South,188,2.0,6.0,100,0.14,,,0.83,meteohub,2013-08-27 09:43:00,
2013-08-27 05:48:00,68.2,68.2,29.84,SE,132,0.0,6.0,100,0.14,,,0.83,meteohub,2013-08-27 09:48:00,
2013-08-27 05:53:00,68.2,68.2,29.84,SE,131,0.0,6.0,100,0.06,,,0.84,meteohub,2013-08-27 09:53:00,
2013-08-27 05:58:00,68.0,68.0,29.84,ESE,120,0.0,6.0,100,0.06,,,0.84,meteohub,2013-08-27 09:58:00,
2013-08-27 06:03:00,68.0,68.0,29.84,ESE,113,0.0,6.0,100,0.07,,,0.86,meteohub,2013-08-27 10:03:00,
2013-08-27 06:08:00,68.0,68.0,29.84,SE,141,2.0,4.0,100,0.07,,,0.86,meteohub,2013-08-27 10:08:00,
2013-08-27 06:13:00,68.0,68.0,29.84,SSE,148,2.0,4.0,100,0.08,,,0.88,meteohub,2013-08-27 10:13:00,
2013-08-27 06:18:00,68.2,68.2,29.84,SE,146,2.0,4.0,100,0.08,,,0.88,meteohub,2013-08-27 10:18:00,
2013-08-27 06:24:00,68.2,68.2,29.84,SSW,204,4.0,4.0,100,0.08,,,0.90,meteohub,2013-08-27 10:24:00,
2013-08-27 06:29:00,68.2,68.2,29.84,SSW,197,5.0,9.0,100,0.08,,,0.90,meteohub,2013-08-27 10:29:00,
2013-08-27 06:34:00,68.4,68.4,29.84,South,186,3.0,9.0,100,0.08,,,0.91,meteohub,2013-08-27 10:34:00,
2013-08-27 06:39:00,68.4,68.4,29.84,South,190,1.0,9.0,100,0.10,,,0.91,meteohub,2013-08-27 10:39:00,
2013-08-27 06:44:00,68.4,68.4,29.84,ESE,120,5.0,9.0,100,0.10,,,0.94,meteohub,2013-08-27 10:44:00,
2013-08-27 06:49:00,68.2,68.2,29.84,SSE,154,3.0,7.0,100,0.10,,,0.94,meteohub,2013-08-27 10:49:00,
2013-08-27 06:54:00,68.2,68.2,29.84,SE,135,0.0,6.0,100,0.10,,,0.95,meteohub,2013-08-27 10:54:00,
2013-08-27 06:59:00,68.2,68.2,29.84,ESE,113,0.0,6.0,100,0.10,,,0.95,meteohub,2013-08-27 10:59:00,
2013-08-27 07:04:00,68.2,68.2,29.84,East,88,0.0,4.0,100,0.11,,,0.96,meteohub,2013-08-27 11:04:00,
2013-08-27 07:09:00,68.2,68.2,29.84,ESE,122,0.0,4.0,100,0.11,,,0.96,meteohub,2013-08-27 11:09:00,
2013-08-27 07:14:00,68.2,68.2,29.84,ESE,120,0.0,1.0,100,0.11,,,0.99,meteohub,2013-08-27 11:14:00,
2013-08-27 07:19:00,68.2,68.2,29.84,ESE,111,0.0,1.0,100,0.11,,,0.99,meteohub,2013-08-27 11:19:00,
2013-08-27 07:24:00,68.2,68.2,29.84,ESE,117,0.0,1.0,100,0.11,,,1.01,meteohub,2013-08-27 11:24:00,
2013-08-27 07:29:00,68.2,68.2,29.84,South,190,0.0,1.0,100,0.11,,,1.01,meteohub,2013-08-27 11:29:00,
2013-08-27 07:34:00,68.2,68.2,29.84,SE,141,0.0,4.0,100,0.10,,,1.01,meteohub,2013-08-27 11:34:00,
2013-08-27 07:39:00,68.2,68.2,29.84,South,183,0.0,4.0,100,0.10,,,1.01,meteohub,2013-08-27 11:39:00,
2013-08-27 07:44:00,68.4,68.4,29.84,WSW,242,0.0,4.0,100,0.07,,,1.02,meteohub,2013-08-27 11:44:00,
2013-08-27 07:49:00,68.4,68.4,29.84,WNW,285,0.0,4.0,100,0.07,,,1.02,meteohub,2013-08-27 11:49:00,
2013-08-27 07:54:00,68.5,68.5,29.84,WNW,285,0.0,1.0,100,0.10,,,1.04,meteohub,2013-08-27 11:54:00,
2013-08-27 07:59:00,68.4,68.4,29.83,SE,129,0.0,1.0,100,0.10,,,1.04,meteohub,2013-08-27 11:59:00,
2013-08-27 08:04:00,68.4,68.4,29.83,ESE,103,0.0,1.0,100,0.27,,,1.22,meteohub,2013-08-27 12:04:00,
2013-08-27 08:09:00,68.4,68.4,29.84,SSE,162,0.0,1.0,100,0.27,,,1.22,meteohub,2013-08-27 12:09:00,
2013-08-27 08:14:00,68.4,68.4,29.83,ENE,71,2.0,2.0,100,0.32,,,1.32,meteohub,2013-08-27 12:14:00,
2013-08-27 08:19:00,68.4,68.4,29.83,East,84,0.0,2.0,100,0.37,,,1.36,meteohub,2013-08-27 12:19:00,
2013-08-27 08:24:00,68.4,68.4,29.84,NE,39,1.0,3.0,100,0.38,,,1.39,meteohub,2013-08-27 12:24:00,
2013-08-27 08:29:00,68.4,68.4,29.84,ENE,68,3.0,3.0,100,0.40,,,1.41,meteohub,2013-08-27 12:29:00,
2013-08-27 08:34:00,68.4,68.4,29.84,East,92,0.0,4.0,100,0.39,,,1.41,meteohub,2013-08-27 12:34:00,
2013-08-27 08:40:00,68.4,68.4,29.84,North,357,1.0,4.0,100,0.39,,,1.41,meteohub,2013-08-27 12:40:00,
2013-08-27 08:45:00,68.4,68.4,29.84,ENE,70,0.0,4.0,100,0.40,,,1.42,meteohub,2013-08-27 12:45:00,
2013-08-27 08:50:00,68.4,68.4,29.84,NE,49,0.0,3.0,100,0.39,,,1.42,meteohub,2013-08-27 12:50:00,
2013-08-27 08:55:00,68.4,68.4,29.84,NNE,26,3.0,3.0,100,0.37,,,1.43,meteohub,2013-08-27 12:55:00,
2013-08-27 09:00:00,68.4,68.4,29.84,East,89,0.0,4.0,100,0.31,,,1.46,meteohub,2013-08-27 13:00:00,
2013-08-27 09:05:00,68.4,68.4,29.84,ENE,77,0.0,4.0,100,0.26,,,1.49,meteohub,2013-08-27 13:05:00,
2013-08-27 09:10:00,68.5,68.5,29.84,ENE,76,2.0,4.0,100,0.25,,,1.54,meteohub,2013-08-27 13:10:00,
2013-08-27 09:15:00,68.4,68.4,29.84,ENE,57,4.0,6.0,100,0.28,,,1.62,meteohub,2013-08-27 13:15:00,
2013-08-27 09:20:00,68.4,68.4,29.84,NE,49,5.0,10.0,100,0.29,,,1.67,meteohub,2013-08-27 13:20:00,
2013-08-27 09:25:00,68.4,68.4,29.84,NE,39,5.0,10.0,100,0.38,,,1.78,meteohub,2013-08-27 13:25:00,
2013-08-27 09:30:00,68.2,68.2,29.84,NE,34,3.0,12.0,100,0.48,,,1.89,meteohub,2013-08-27 13:30:00,
2013-08-27 09:35:00,68.4,68.4,29.85,NE,49,3.0,12.0,100,0.53,,,1.94,meteohub,2013-08-27 13:35:00,
2013-08-27 09:40:00,68.2,68.2,29.85,SE,127,1.0,12.0,100,0.58,,,1.99,meteohub,2013-08-27 13:40:00,
2013-08-27 09:45:00,68.2,68.2,29.84,East,92,2.0,9.0,100,0.63,,,2.05,meteohub,2013-08-27 13:45:00,
2013-08-27 09:50:00,68.2,68.2,29.85,ENE,75,6.0,7.0,100,0.65,,,2.07,meteohub,2013-08-27 13:50:00,
2013-08-27 09:55:00,68.2,68.2,29.85,ENE,75,3.0,8.0,100,0.69,,,2.12,meteohub,2013-08-27 13:55:00,
2013-08-27 10:00:00,68.2,68.2,29.85,NE,36,2.0,10.0,100,0.70,,,2.17,meteohub,2013-08-27 14:00:00,
2013-08-27 10:05:00,68.2,68.2,29.84,ENE,69,3.0,10.0,100,0.66,,,2.18,meteohub,2013-08-27 14:05:00,
2013-08-27 10:10:00,68.4,68.4,29.84,ENE,65,4.0,10.0,100,0.65,,,2.21,meteohub,2013-08-27 14:10:00,
2013-08-27 10:15:00,68.4,68.4,29.84,ENE,75,2.0,9.0,100,0.60,,,2.22,meteohub,2013-08-27 14:15:00,
2013-08-27 10:20:00,68.4,68.4,29.84,ENE,78,7.0,9.0,100,0.50,,,2.23,meteohub,2013-08-27 14:20:00,
2013-08-27 10:25:00,68.4,68.4,29.84,East,88,3.0,8.0,100,0.43,,,2.25,meteohub,2013-08-27 14:25:00,
2013-08-27 10:30:00,68.4,68.4,29.84,NNE,25,6.0,8.0,100,0.35,,,2.26,meteohub,2013-08-27 14:30:00,
2013-08-27 10:35:00,68.4,68.4,29.84,ENE,58,8.0,9.0,100,0.30,,,2.27,meteohub,2013-08-27 14:35:00,
2013-08-27 10:40:00,68.5,68.5,29.84,NE,41,2.0,9.0,100,0.27,,,2.28,meteohub,2013-08-27 14:40:00,
2013-08-27 10:45:00,68.5,68.5,29.84,NNE,23,3.0,9.0,100,0.22,,,2.28,meteohub,2013-08-27 14:45:00,
2013-08-27 10:50:00,68.5,68.5,29.84,East,83,5.0,9.0,100,0.20,,,2.29,meteohub,2013-08-27 14:50:00,
2013-08-27 10:55:00,68.5,68.5,29.85,NNE,26,3.0,14.0,100,0.16,,,2.29,meteohub,2013-08-27 14:55:00,
2013-08-27 11:00:00,68.7,68.7,29.85,North,350,3.0,14.0,100,0.12,,,2.30,meteohub,2013-08-27 15:00:00,
2013-08-27 11:05:00,68.7,68.7,29.85,NNW,348,3.0,14.0,100,0.10,,,2.30,meteohub,2013-08-27 15:05:00,
2013-08-27 11:10:00,68.7,68.7,29.85,North,6,3.0,9.0,100,0.08,,,2.31,meteohub,2013-08-27 15:10:00,
2013-08-27 11:15:00,68.9,68.9,29.85,North,354,6.0,8.0,100,0.08,,,2.31,meteohub,2013-08-27 15:15:00,
2013-08-27 11:20:00,69.1,69.1,29.85,NNE,17,3.0,9.0,100,0.07,,,2.31,meteohub,2013-08-27 15:20:00,
2013-08-27 11:25:00,69.1,69.1,29.85,NE,34,7.0,9.0,100,0.06,,,2.31,meteohub,2013-08-27 15:25:00,
2013-08-27 11:30:00,69.3,69.3,29.86,NE,46,4.0,11.0,100,0.04,,,2.31,meteohub,2013-08-27 15:30:00,
2013-08-27 11:35:00,69.3,69.3,29.86,North,358,3.0,11.0,100,0.04,,,2.32,meteohub,2013-08-27 15:35:00,
2013-08-27 11:40:00,69.3,69.3,29.86,NE,40,11.0,11.0,100,0.04,,,2.32,meteohub,2013-08-27 15:40:00,
2013-08-27 11:45:00,69.3,69.3,29.86,North,354,8.0,13.0,100,0.04,,,2.32,meteohub,2013-08-27 15:45:00,
2013-08-27 11:50:00,69.6,69.6,29.86,North,6,12.0,14.0,100,0.03,,,2.32,meteohub,2013-08-27 15:50:00,
2013-08-27 11:55:00,70.0,70.0,29.86,NE,37,7.0,14.0,100,0.03,,,2.32,meteohub,2013-08-27 15:55:00,
2013-08-27 12:00:00,70.3,70.3,29.86,North,356,4.0,13.0,100,0.03,,,2.32,meteohub,2013-08-27 16:00:00,
2013-08-27 12:05:00,70.7,70.7,29.85,NE,34,10.0,12.0,100,0.02,,,2.32,meteohub,2013-08-27 16:05:00,
2013-08-27 12:10:00,70.3,70.0,29.85,North,8,7.0,12.0,99,0.02,,,2.32,meteohub,2013-08-27 16:10:00,
2013-08-27 12:15:00,70.5,70.2,29.86,NNE,15,6.0,14.0,99,0.01,,,2.32,meteohub,2013-08-27 16:15:00,
2013-08-27 12:20:00,70.9,70.5,29.86,North,350,3.0,14.0,99,0.01,,,2.32,meteohub,2013-08-27 16:20:00,
2013-08-27 12:25:00,71.1,70.7,29.86,NE,37,9.0,14.0,99,0.01,,,2.32,meteohub,2013-08-27 16:25:00,
2013-08-27 12:30:00,70.9,70.5,29.85,NE,48,11.0,11.0,99,0.01,,,2.32,meteohub,2013-08-27 16:30:00,
2013-08-27 12:35:00,71.1,70.5,29.85,North,4,5.0,12.0,98,0.00,,,2.32,meteohub,2013-08-27 16:35:00,
2013-08-27 12:40:00,71.2,70.7,29.85,NE,49,4.0,15.0,98,0.00,,,2.32,meteohub,2013-08-27 16:40:00,
2013-08-27 12:45:00,71.6,71.1,29.85,North,11,3.0,15.0,98,0.00,,,2.32,meteohub,2013-08-27 16:45:00,
2013-08-27 12:50:00,71.8,70.9,29.85,NNE,20,13.0,15.0,97,0.00,,,2.32,meteohub,2013-08-27 16:50:00,
2013-08-27 12:55:00,72.0,70.7,29.85,North,5,11.0,14.0,96,0.00,,,2.32,meteohub,2013-08-27 16:55:00,
2013-08-27 13:01:00,72.3,71.1,29.85,NNW,344,4.0,16.0,96,0.00,,,2.32,meteohub,2013-08-27 17:01:00,
2013-08-27 13:06:00,72.5,71.1,29.85,North,356,8.0,16.0,95,0.00,,,2.32,meteohub,2013-08-27 17:06:00,
2013-08-27 13:11:00,72.7,71.2,29.85,North,8,3.0,15.0,95,0.00,,,2.32,meteohub,2013-08-27 17:11:00,
2013-08-27 13:16:00,72.9,71.1,29.85,North,11,6.0,15.0,94,0.00,,,2.32,meteohub,2013-08-27 17:16:00,
2013-08-27 13:21:00,72.9,71.1,29.85,NNW,335,4.0,15.0,94,0.00,,,2.32,meteohub,2013-08-27 17:21:00,
2013-08-27 13:26:00,73.0,70.9,29.84,North,359,4.0,15.0,93,0.00,,,2.32,meteohub,2013-08-27 17:26:00,
2013-08-27 13:31:00,73.2,70.7,29.84,NE,35,15.0,15.0,92,0.00,,,2.32,meteohub,2013-08-27 17:31:00,
2013-08-27 13:36:00,73.2,70.7,29.85,NE,41,5.0,15.0,92,0.00,,,2.32,meteohub,2013-08-27 17:36:00,
2013-08-27 13:41:00,73.6,70.7,29.85,NE,41,12.0,17.0,91,0.00,,,2.32,meteohub,2013-08-27 17:41:00,
2013-08-27 13:46:00,73.4,70.5,29.85,NE,44,8.0,17.0,91,0.00,,,2.32,meteohub,2013-08-27 17:46:00,
2013-08-27 13:51:00,73.6,70.5,29.86,NNW,330,5.0,17.0,90,0.00,,,2.32,meteohub,2013-08-27 17:51:00,
2013-08-27 13:56:00,73.8,70.7,29.86,NNW,340,8.0,16.0,90,0.00,,,2.32,meteohub,2013-08-27 17:56:00,
2013-08-27 14:01:00,73.9,70.5,29.86,NNE,20,3.0,16.0,89,0.00,,,2.32,meteohub,2013-08-27 18:01:00,
2013-08-27 14:06:00,74.1,70.7,29.85,North,3,7.0,13.0,89,0.00,,,2.32,meteohub,2013-08-27 18:06:00,
2013-08-27 14:11:00,74.3,70.5,29.85,NE,41,9.0,13.0,88,0.00,,,2.32,meteohub,2013-08-27 18:11:00,
2013-08-27 14:16:00,74.8,71.4,29.85,NNE,22,5.0,13.0,89,0.00,,,2.32,meteohub,2013-08-27 18:16:00,
2013-08-27 14:21:00,75.2,71.4,29.85,NNW,327,6.0,12.0,88,0.00,,,2.32,meteohub,2013-08-27 18:21:00,
2013-08-27 14:26:00,75.6,71.1,29.85,NE,40,4.0,12.0,86,0.00,,,2.32,meteohub,2013-08-27 18:26:00,
2013-08-27 14:31:00,76.3,71.8,29.85,NNE,33,15.0,15.0,86,0.00,,,2.32,meteohub,2013-08-27 18:31:00,
2013-08-27 14:36:00,76.6,71.8,29.85,NNE,30,9.0,15.0,85,0.00,,,2.32,meteohub,2013-08-27 18:36:00,
2013-08-27 14:41:00,76.3,70.7,29.85,NNE,21,6.0,16.0,83,0.00,,,2.32,meteohub,2013-08-27 18:41:00,
2013-08-27 14:46:00,76.5,71.2,29.85,ENE,57,12.0,16.0,84,0.00,,,2.32,meteohub,2013-08-27 18:46:00,
2013-08-27 14:51:00,76.8,71.6,29.84,North,8,5.0,16.0,84,0.00,,,2.32,meteohub,2013-08-27 18:51:00,
2013-08-27 14:56:00,77.5,71.2,29.84,NNE,15,8.0,14.0,81,0.00,,,2.32,meteohub,2013-08-27 18:56:00,
2013-08-27 15:01:00,77.5,71.2,29.85,NNW,346,12.0,16.0,81,0.00,,,2.32,meteohub,2013-08-27 19:01:00,
2013-08-27 15:06:00,77.7,71.4,29.85,North,0,12.0,16.0,81,0.00,,,2.32,meteohub,2013-08-27 19:06:00,
2013-08-27 15:11:00,77.5,70.9,29.84,ENE,62,12.0,17.0,80,0.00,,,2.32,meteohub,2013-08-27 19:11:00,
2013-08-27 15:16:00,77.7,71.4,29.85,NNE,27,4.0,17.0,81,0.00,,,2.32,meteohub,2013-08-27 19:16:00,
2013-08-27 15:21:00,77.7,71.1,29.84,North,5,6.0,17.0,80,0.00,,,2.32,meteohub,2013-08-27 19:21:00,
2013-08-27 15:26:00,78.3,72.0,29.84,NW,308,5.0,15.0,81,0.00,,,2.32,meteohub,2013-08-27 19:26:00,
2013-08-27 15:31:00,78.6,71.6,29.84,NE,50,7.0,15.0,79,0.00,,,2.32,meteohub,2013-08-27 19:31:00,
2013-08-27 15:36:00,78.3,70.9,29.84,ENE,57,10.0,14.0,78,0.00,,,2.32,meteohub,2013-08-27 19:36:00,
2013-08-27 15:41:00,78.4,71.4,29.84,NNW,342,8.0,14.0,79,0.00,,,2.32,meteohub,2013-08-27 19:41:00,
2013-08-27 15:46:00,78.4,71.4,29.84,NNE,33,9.0,16.0,79,0.00,,,2.32,meteohub,2013-08-27 19:46:00,
2013-08-27 15:51:00,78.4,71.1,29.84,NNE,20,2.0,17.0,78,0.00,,,2.32,meteohub,2013-08-27 19:51:00,
2013-08-27 15:56:00,78.6,71.6,29.84,North,11,5.0,17.0,79,0.00,,,2.32,meteohub,2013-08-27 19:56:00,
2013-08-27 16:01:00,78.6,71.2,29.84,North,353,9.0,17.0,78,0.00,,,2.32,meteohub,2013-08-27 20:01:00,
2013-08-27 16:06:00,78.6,71.2,29.84,North,356,8.0,15.0,78,0.00,,,2.32,meteohub,2013-08-27 20:06:00,
2013-08-27 16:11:00,78.8,71.8,29.84,NNE,13,4.0,15.0,79,0.00,,,2.32,meteohub,2013-08-27 20:11:00,
2013-08-27 16:16:00,78.8,71.8,29.84,NE,49,7.0,15.0,79,0.00,,,2.32,meteohub,2013-08-27 20:16:00,
2013-08-27 16:21:00,78.6,71.6,29.84,NNE,23,6.0,14.0,79,0.00,,,2.32,meteohub,2013-08-27 20:21:00,
2013-08-27 16:27:00,79.0,71.1,29.84,NNE,33,6.0,13.0,77,0.00,,,2.32,meteohub,2013-08-27 20:27:00,
2013-08-27 16:32:00,79.0,71.6,29.84,ENE,72,4.0,13.0,78,0.00,,,2.32,meteohub,2013-08-27 20:32:00,
2013-08-27 16:37:00,78.8,71.1,29.84,NNE,25,12.0,13.0,77,0.00,,,2.32,meteohub,2013-08-27 20:37:00,
2013-08-27 16:42:00,78.6,71.2,29.83,NNE,18,10.0,13.0,78,0.00,,,2.32,meteohub,2013-08-27 20:42:00,
2013-08-27 16:47:00,78.4,71.1,29.83,NNE,25,9.0,15.0,78,0.00,,,2.32,meteohub,2013-08-27 20:47:00,
2013-08-27 16:52:00,78.4,71.1,29.83,NE,51,5.0,15.0,78,0.00,,,2.32,meteohub,2013-08-27 20:52:00,
2013-08-27 16:57:00,78.6,71.6,29.83,ENE,63,8.0,15.0,79,0.00,,,2.32,meteohub,2013-08-27 20:57:00,
2013-08-27 17:02:00,78.6,71.6,29.83,East,82,7.0,13.0,79,0.00,,,2.32,meteohub,2013-08-27 21:02:00,
2013-08-27 17:07:00,78.4,71.8,29.83,ENE,57,5.0,10.0,80,0.00,,,2.32,meteohub,2013-08-27 21:07:00,
2013-08-27 17:13:00,78.3,71.6,29.84,ENE,65,4.0,10.0,80,0.00,,,2.32,meteohub,2013-08-27 21:13:00,
2013-08-27 17:18:00,77.9,71.2,29.84,North,354,5.0,10.0,80,0.00,,,2.32,meteohub,2013-08-27 21:18:00,
2013-08-27 17:23:00,77.7,71.4,29.84,NE,56,7.0,10.0,81,0.00,,,2.32,meteohub,2013-08-27 21:23:00,
2013-08-27 17:28:00,77.0,71.1,29.84,ESE,106,3.0,10.0,82,0.00,,,2.32,meteohub,2013-08-27 21:28:00,
2013-08-27 17:33:00,76.8,71.2,29.84,ENE,77,5.0,10.0,83,0.00,,,2.32,meteohub,2013-08-27 21:33:00,
2013-08-27 17:41:00,76.3,71.1,29.84,ESE,116,5.0,9.0,84,0.00,,,2.32,meteohub,2013-08-27 21:41:00,
2013-08-27 17:47:00,75.4,70.9,29.85,East,89,4.0,9.0,86,0.00,,,2.32,meteohub,2013-08-27 21:47:00,
2013-08-27 17:52:00,75.0,70.9,29.85,East,98,4.0,9.0,87,0.00,,,2.32,meteohub,2013-08-27 21:52:00,
2013-08-27 17:57:00,74.8,70.7,29.85,East,98,4.0,9.0,87,0.00,,,2.32,meteohub,2013-08-27 21:57:00,
2013-08-27 18:02:00,74.5,70.7,29.85,ESE,108,4.0,7.0,88,0.00,,,2.32,meteohub,2013-08-27 22:02:00,
2013-08-27 18:07:00,73.9,70.5,29.85,East,93,4.0,7.0,89,0.00,,,2.32,meteohub,2013-08-27 22:07:00,
2013-08-27 18:12:00,73.8,70.7,29.85,East,79,3.0,7.0,90,0.00,,,2.32,meteohub,2013-08-27 22:12:00,
2013-08-27 18:17:00,73.6,70.5,29.85,East,84,2.0,7.0,90,0.00,,,2.32,meteohub,2013-08-27 22:17:00,
2013-08-27 18:22:00,73.0,70.3,29.85,East,98,5.0,7.0,91,0.00,,,2.32,meteohub,2013-08-27 22:22:00,
2013-08-27 18:27:00,72.7,70.2,29.85,ENE,75,4.0,8.0,92,0.00,,,2.32,meteohub,2013-08-27 22:27:00,
2013-08-27 18:32:00,72.7,70.2,29.85,SE,128,3.0,9.0,92,0.00,,,2.32,meteohub,2013-08-27 22:32:00,
2013-08-27 18:37:00,72.7,70.2,29.85,ESE,110,0.0,9.0,92,0.00,,,2.32,meteohub,2013-08-27 22:37:00,
2013-08-27 18:42:00,72.7,70.2,29.85,East,97,5.0,6.0,92,0.00,,,2.32,meteohub,2013-08-27 22:42:00,
2013-08-27 18:47:00,72.7,70.2,29.85,East,96,3.0,5.0,92,0.00,,,2.32,meteohub,2013-08-27 22:47:00,
2013-08-27 18:52:00,72.3,69.8,29.85,ESE,113,1.0,5.0,92,0.00,,,2.32,meteohub,2013-08-27 22:52:00,
2013-08-27 18:57:00,72.1,69.6,29.85,East,98,3.0,5.0,92,0.00,,,2.32,meteohub,2013-08-27 22:57:00,
2013-08-27 19:02:00,72.1,69.6,29.85,NE,46,0.0,5.0,92,0.00,,,2.32,meteohub,2013-08-27 23:02:00,
2013-08-27 19:07:00,72.0,69.4,29.85,East,90,0.0,5.0,92,0.00,,,2.32,meteohub,2013-08-27 23:07:00,
2013-08-27 19:12:00,71.6,69.4,29.86,ESE,107,2.0,5.0,93,0.00,,,2.32,meteohub,2013-08-27 23:12:00,
2013-08-27 19:17:00,71.2,69.1,29.86,East,87,1.0,6.0,93,0.00,,,2.32,meteohub,2013-08-27 23:17:00,
2013-08-27 19:22:00,71.1,69.3,29.86,ESE,103,0.0,6.0,94,0.00,,,2.32,meteohub,2013-08-27 23:22:00,
2013-08-27 19:27:00,70.9,69.1,29.86,ESE,116,0.0,6.0,94,0.00,,,2.32,meteohub,2013-08-27 23:27:00,
2013-08-27 19:32:00,70.7,68.9,29.86,East,98,1.0,6.0,94,0.00,,,2.32,meteohub,2013-08-27 23:32:00,
2013-08-27 19:37:00,70.5,69.1,29.86,ESE,113,4.0,4.0,95,0.00,,,2.32,meteohub,2013-08-27 23:37:00,
2013-08-27 19:42:00,70.3,68.9,29.86,East,94,0.0,4.0,95,0.00,,,2.32,meteohub,2013-08-27 23:42:00,
2013-08-27 19:47:00,70.3,68.9,29.86,SE,138,0.0,4.0,95,0.00,,,2.32,meteohub,2013-08-27 23:47:00,
2013-08-27 19:52:00,70.2,68.7,29.86,ESE,122,0.0,4.0,95,0.00,,,2.32,meteohub,2013-08-27 23:52:00,
2013-08-27 19:57:00,70.0,68.5,29.87,ESE,122,0.0,2.0,95,0.00,,,2.32,meteohub,2013-08-27 23:57:00,
2013-08-27 20:02:00,70.0,68.7,29.87,North,359,0.0,1.0,96,0.00,,,2.32,meteohub,2013-08-28 00:02:00,
2013-08-27 20:07:00,69.6,68.4,29.87,North,359,0.0,0.0,96,0.00,,,2.32,meteohub,2013-08-28 00:07:00,
2013-08-27 20:12:00,69.6,68.4,29.87,NW,324,0.0,0.0,96,0.00,,,2.32,meteohub,2013-08-28 00:12:00,
2013-08-27 20:17:00,69.4,68.2,29.88,NNW,327,0.0,1.0,96,0.00,,,2.32,meteohub,2013-08-28 00:17:00,
2013-08-27 20:22:00,69.3,68.0,29.88,NNW,328,0.0,1.0,96,0.00,,,2.32,meteohub,2013-08-28 00:22:00,
2013-08-27 20:27:00,69.3,68.4,29.88,NNW,328,0.0,0.0,97,0.00,,,2.32,meteohub,2013-08-28 00:27:00,
2013-08-27 20:32:00,69.1,68.2,29.88,ESE,114,0.0,1.0,97,0.00,,,2.32,meteohub,2013-08-28 00:32:00,
2013-08-27 20:37:00,68.7,67.8,29.88,ESE,115,0.0,1.0,97,0.00,,,2.32,meteohub,2013-08-28 00:37:00,
2013-08-27 20:42:00,68.5,67.6,29.88,ESE,116,0.0,1.0,97,0.00,,,2.32,meteohub,2013-08-28 00:42:00,
2013-08-27 20:47:00,68.5,68.0,29.89,ESE,115,0.0,0.0,98,0.00,,,2.32,meteohub,2013-08-28 00:47:00,
2013-08-27 20:52:00,68.4,67.5,29.89,ESE,116,0.0,0.0,97,0.00,,,2.32,meteohub,2013-08-28 00:52:00,
2013-08-27 20:57:00,68.0,67.1,29.89,ESE,116,0.0,0.0,97,0.00,,,2.32,meteohub,2013-08-28 00:57:00,
2013-08-27 21:02:00,68.0,67.5,29.89,West,281,0.0,0.0,98,0.00,,,2.32,meteohub,2013-08-28 01:02:00,
2013-08-27 21:07:00,68.2,67.6,29.89,WNW,285,0.0,2.0,98,0.00,,,2.32,meteohub,2013-08-28 01:07:00,
2013-08-27 21:12:00,68.0,67.5,29.89,WNW,285,0.0,2.0,98,0.00,,,2.32,meteohub,2013-08-28 01:12:00,
2013-08-27 21:17:00,67.6,67.1,29.89,WNW,285,0.0,2.0,98,0.00,,,2.32,meteohub,2013-08-28 01:17:00,
2013-08-27 21:22:00,67.6,67.1,29.89,WNW,285,0.0,0.0,98,0.00,,,2.32,meteohub,2013-08-28 01:22:00,
2013-08-27 21:27:00,67.6,67.1,29.89,WNW,285,0.0,0.0,98,0.00,,,2.32,meteohub,2013-08-28 01:27:00,
2013-08-27 21:32:00,67.6,67.1,29.89,WNW,285,0.0,0.0,98,0.00,,,2.32,meteohub,2013-08-28 01:32:00,
2013-08-27 21:37:00,67.6,67.1,29.89,WNW,285,0.0,0.0,98,0.00,,,2.32,meteohub,2013-08-28 01:37:00,
2013-08-27 21:42:00,67.6,67.1,29.89,WNW,285,0.0,0.0,98,0.00,,,2.32,meteohub,2013-08-28 01:42:00,
2013-08-27 21:47:00,67.3,66.7,29.90,WNW,285,0.0,0.0,98,0.00,,,2.32,meteohub,2013-08-28 01:47:00,
2013-08-27 21:52:00,67.1,66.6,29.90,WNW,285,0.0,0.0,98,0.00,,,2.32,meteohub,2013-08-28 01:52:00,
2013-08-27 21:57:00,67.1,66.7,29.90,WNW,285,0.0,0.0,99,0.00,,,2.32,meteohub,2013-08-28 01:57:00,
2013-08-27 22:02:00,66.9,66.4,29.90,WNW,285,0.0,0.0,98,0.00,,,2.32,meteohub,2013-08-28 02:02:00,
2013-08-27 22:07:00,66.7,66.2,29.90,WNW,285,0.0,0.0,98,0.00,,,2.32,meteohub,2013-08-28 02:07:00,
2013-08-27 22:12:00,66.6,66.2,29.90,WNW,285,0.0,0.0,99,0.00,,,2.32,meteohub,2013-08-28 02:12:00,
2013-08-27 22:17:00,66.4,66.0,29.90,WNW,285,0.0,0.0,99,0.00,,,2.32,meteohub,2013-08-28 02:17:00,
2013-08-27 22:22:00,66.2,65.8,29.90,WNW,290,0.0,0.0,99,0.00,,,2.32,meteohub,2013-08-28 02:22:00,
2013-08-27 22:27:00,66.4,66.0,29.90,WNW,291,0.0,0.0,99,0.00,,,2.32,meteohub,2013-08-28 02:27:00,
2013-08-27 22:32:00,66.6,66.2,29.90,NW,309,0.0,1.0,99,0.00,,,2.32,meteohub,2013-08-28 02:32:00,
2013-08-27 22:37:00,66.7,66.4,29.90,NW,309,0.0,1.0,99,0.00,,,2.32,meteohub,2013-08-28 02:37:00,
2013-08-27 22:42:00,66.7,66.4,29.90,NW,307,0.0,1.0,99,0.00,,,2.32,meteohub,2013-08-28 02:42:00,
2013-08-27 22:48:00,66.2,65.7,29.90,NW,308,0.0,0.0,98,0.00,,,2.32,meteohub,2013-08-28 02:48:00,
2013-08-27 22:54:00,66.2,65.8,29.90,NW,308,0.0,0.0,99,0.00,,,2.32,meteohub,2013-08-28 02:54:00,
2013-08-27 22:59:00,66.0,65.7,29.90,SSW,195,0.0,0.0,99,0.00,,,2.32,meteohub,2013-08-28 02:59:00,
2013-08-27 23:04:00,65.8,65.5,29.90,SSW,210,0.0,0.0,99,0.00,,,2.32,meteohub,2013-08-28 03:04:00,
2013-08-27 23:09:00,65.7,65.3,29.91,SSW,210,0.0,0.0,99,0.00,,,2.32,meteohub,2013-08-28 03:09:00,
2013-08-27 23:14:00,65.7,65.3,29.91,SSW,210,0.0,0.0,99,0.00,,,2.32,meteohub,2013-08-28 03:14:00,
2013-08-27 23:19:00,65.5,65.1,29.91,SW,218,0.0,0.0,99,0.00,,,2.32,meteohub,2013-08-28 03:19:00,
2013-08-27 23:24:00,65.8,65.5,29.91,NW,323,0.0,0.0,99,0.00,,,2.32,meteohub,2013-08-28 03:24:00,
2013-08-27 23:29:00,66.0,66.0,29.91,WNW,284,0.0,1.0,100,0.00,,,2.32,meteohub,2013-08-28 03:29:00,
2013-08-27 23:34:00,65.8,65.5,29.91,WNW,284,0.0,1.0,99,0.00,,,2.32,meteohub,2013-08-28 03:34:00,
2013-08-27 23:39:00,65.7,65.3,29.91,WNW,284,0.0,1.0,99,0.00,,,2.32,meteohub,2013-08-28 03:39:00,
2013-08-27 23:44:00,65.7,65.3,29.91,NW,316,0.0,1.0,99,0.00,,,2.32,meteohub,2013-08-28 03:44:00,
2013-08-27 23:49:00,65.8,65.5,29.91,NW,313,0.0,1.0,99,0.00,,,2.32,meteohub,2013-08-28 03:49:00,
2013-08-27 23:54:00,65.7,65.3,29.91,SW,218,0.0,1.0,99,0.00,,,2.32,meteohub,2013-08-28 03:54:00,
2013-08-27 23:59:00,65.7,65.3,29.91,SSW,194,0.0,1.0,99,0.00,,,2.32,meteohub,2013-08-28 03:59:00,